Alliance, NE

11:10 AM MDT on May 24, 2017 (GMT -0600)
Alliance Municipal

Weather History for KAIA - October, 2012

Change the Weather History Date:

Thursday, October 11, 2012

  Actual Average Record
Temperature  
Mean Temperature 40 °F 48 °F  
Max Temperature 50 °F 64 °F 88 °F (2015)
Min Temperature 30 °F 31 °F 14 °F (1987)
Degree Days  
Heating Degree Days 25 17  
Month to date heating degree days 240 168  
Since 1 July heating degree days 403 413  
Cooling Degree Days 0 0  
Month to date cooling degree days 0 0  
Year to date cooling degree days 959 563  
Moisture  
Dew Point 31 °F    
Average Humidity 68    
Maximum Humidity 89    
Minimum Humidity 46    
Precipitation  
Precipitation 0.00 in 0.05 in 0.54 in (1973)
Month to date precipitation 0.42 0.50  
Year to date precipitation 6.23 14.30  
Sea Level Pressure  
Sea Level Pressure 30.17 in    
Wind  
Wind Speed 11 mph (NE)    
Max Wind Speed 22 mph    
Max Gust Speed 28 mph    
Visibility 10 miles    
Events      
T = Trace of Precipitation, MM = Missing Value Source: NWS Daily Summary

Daily Weather History Graph

Daily Weather History Graph

Search for Another Location

Airport or City:

Trip Planner

Search our weather history database for the weather conditions in past years. The results will help you decide how hot, cold, wet, or windy it might be!

Date:

Astronomy

Oct. 11, 2012 Rise Set
Actual Time 6:59 AM MDT 6:15 PM MDT
Civil Twilight 6:31 AM MDT 6:43 PM MDT
Nautical Twilight 5:59 AM MDT 7:15 PM MDT
Astronomical Twilight 5:26 AM MDT 7:47 PM MDT
Moon 2:36 AM MDT (10/11) 3:56 PM MDT (10/11)
Length of Visible Light 12h 11m
Length of Day
11h 15m
Waning Crescent, 18% of the Moon is Illuminated
Oct 11
Waning Crescent
Oct 15
New
Oct 21
First Quarter
Oct 29
Full
Nov 6
Last Quarter

Hourly Weather History & Observations

Time (MDT) Temp. Windchill Dew Point Humidity Pressure Visibility Wind Dir Wind Speed Gust Speed Precip Events Conditions
12:53 AM 34.0 °F 28.0 °F 30.0 °F 85% 29.91 in 10.0 mi South 6.9 mph - N/A   Clear
1:53 AM 33.1 °F 30.0 °F 30.9 °F 92% 29.91 in 10.0 mi East 3.5 mph - N/A   Clear
2:53 AM 37.9 °F 30.0 °F 34.0 °F 86% 29.91 in 10.0 mi North 12.7 mph - N/A   Clear
3:53 AM 39.9 °F 33.4 °F 34.0 °F 79% 29.93 in 10.0 mi NNE 10.4 mph - N/A   Clear
4:53 AM 41.0 °F 33.9 °F 33.1 °F 73% 29.97 in 10.0 mi NE 12.7 mph - N/A   Clear
5:53 AM 39.9 °F 32.5 °F 33.1 °F 77% 30.03 in 10.0 mi NNE 12.7 mph - N/A   Clear
6:53 AM 37.9 °F 31.5 °F 32.0 °F 79% 30.11 in 10.0 mi North 9.2 mph - N/A   Clear
7:53 AM 37.0 °F 29.8 °F 32.0 °F 82% 30.16 in 10.0 mi North 10.4 mph - N/A   Clear
8:53 AM 37.4 °F 28.9 °F 33.8 °F 87% 30.19 in 10.0 mi NNE 13.8 mph - N/A   Clear
9:13 AM 39.2 °F 31.6 °F 33.8 °F 81% 30.20 in 10.0 mi NNE 12.7 mph - N/A   Mostly Cloudy
9:53 AM 41.0 °F 33.1 °F 33.1 °F 73% 30.22 in 10.0 mi NE 15.0 mph - N/A   Mostly Cloudy
10:33 AM 42.8 °F 35.1 °F 33.8 °F 70% 30.21 in 10.0 mi NNE 16.1 mph - N/A   Mostly Cloudy
10:53 AM 41.0 °F 32.2 °F 32.0 °F 70% 30.24 in 10.0 mi NNE 18.4 mph 24.2 mph N/A   Mostly Cloudy
11:00 AM 42.8 °F 35.4 °F 32.0 °F 66% 30.22 in 10.0 mi NNE 15.0 mph - N/A   Scattered Clouds
11:37 AM 41.0 °F 32.5 °F 32.0 °F 70% 30.22 in 10.0 mi NNE 17.3 mph - N/A   Mostly Cloudy
11:53 AM 43.0 °F 34.8 °F 32.0 °F 65% 30.23 in 10.0 mi NE 18.4 mph 27.6 mph N/A   Mostly Cloudy
12:08 PM 42.8 °F 34.8 °F 30.2 °F 61% 30.23 in 10.0 mi NE 17.3 mph - N/A   Scattered Clouds
12:53 PM 46.9 °F - 30.9 °F 54% 30.24 in 10.0 mi NE 16.1 mph 21.9 mph N/A   Clear
1:53 PM 48.0 °F - 30.0 °F 50% 30.24 in 10.0 mi NNE 15.0 mph - N/A   Clear
2:53 PM 48.9 °F - 30.0 °F 48% 30.22 in 10.0 mi NE 16.1 mph 21.9 mph N/A   Clear
3:53 PM 48.2 °F - 28.4 °F 46% 30.21 in 10.0 mi ENE 13.8 mph 21.9 mph N/A   Clear
4:53 PM 48.9 °F - 28.0 °F 44% 30.23 in 10.0 mi NE 9.2 mph - N/A   Clear
5:53 PM 46.0 °F 41.4 °F 28.0 °F 50% 30.24 in 10.0 mi East 9.2 mph - N/A   Clear
6:53 PM 37.4 °F 32.1 °F 26.6 °F 65% 30.24 in 10.0 mi East 6.9 mph - N/A   Clear
7:53 PM 36.0 °F 31.1 °F 27.0 °F 70% 30.32 in 10.0 mi ESE 5.8 mph - N/A   Clear
9:53 PM 34.0 °F 26.6 °F 27.0 °F 75% 30.33 in 10.0 mi ESE 9.2 mph - N/A   Clear
10:53 PM 34.0 °F 26.0 °F 26.1 °F 73% 30.32 in 10.0 mi ESE 10.4 mph - N/A   Clear
11:53 PM 33.1 °F 26.1 °F 26.1 °F 75% 30.33 in 10.0 mi SE 8.1 mph - N/A   Clear